DW7346 Weather Reports


time (UTC)temp
C
wind
direction
speed
KPH
gust
KPH
rain 1hr
cm
rain 24hr
cm
rain mn
cm
humidity
%
barometer
mb
20260505230022 27 356 3.2 9.7 0.00 0.00 0.00 65 1001.8
20260505224533 28 111 1.6 9.7 0.00 0.00 0.00 61 1001.3
20260505223028 29 323 0.0 9.7 0.00 0.00 0.00 60 1001.3
20260505221521 30 215 3.2 9.7 0.00 0.00 0.00 55 1001.0
20260505220033 30 331 1.6 8.0 0.00 0.00 0.00 55 1000.8
20260505214532 31 1 3.2 11.3 0.00 0.00 0.00 53 1001.0
20260505213023 32 244 6.4 12.9 0.00 0.00 0.00 54 1000.8
20260505211515 32 261 6.4 14.5 0.00 0.00 0.00 56 1000.9
20260505210011 31 264 4.8 14.5 0.00 0.00 0.00 57 1001.1
20260505204516 31 245 4.8 16.1 0.00 0.00 0.00 59 1001.2
20260505203009 31 269 6.4 12.9 0.00 0.00 0.00 60 1001.4
20260505201505 31 329 4.8 20.9 0.00 0.00 0.00 61 1001.6
20260505194600 30 267 8.0 16.1 0.00 0.00 0.00 67 1001.7
20260505193056 30 252 8.0 16.1 0.00 0.00 0.00 68 1002.0
20260505191558 29 221 8.0 20.9 0.00 0.00 0.00 68 1001.8
20260505190107 28 216 9.7 19.3 0.00 0.00 0.00 69 1001.8
20260505184600 28 220 6.4 16.1 0.00 0.00 0.00 74 1001.8
20260505183051 27 193 8.0 20.9 0.00 0.00 0.00 72 1002.1
20260505181546 27 239 11.3 22.5 0.00 0.00 0.00 72 1001.9
20260505180049 27 240 8.0 17.7 0.00 0.00 0.00 74 1002.1
20260505174543 27 20 8.0 17.7 0.00 0.00 0.00 73 1002.0
20260505173042 27 174 9.7 22.5 0.00 0.00 0.00 73 1002.0
20260505171541 26 186 9.7 22.5 0.00 0.00 0.00 75 1002.0
20260505170034 26 198 9.7 24.1 0.00 0.00 0.00 76 1002.2
20260505164536 26 170 6.4 19.3 0.00 0.00 0.00 77 1002.1
20260505163031 26 252 6.4 19.3 0.00 0.00 0.00 78 1002.0
20260505161526 25 203 6.4 22.5 0.00 0.00 0.00 80 1001.9
20260505153027 24 213 8.0 19.3 0.00 0.00 0.00 81 1002.0
20260505151518 24 162 8.0 22.5 0.00 0.00 0.00 82 1001.8
20260505124508 21 199 8.0 19.3 0.00 0.00 0.00 89 1001.3
20260505123006 21 231 6.4 20.9 0.00 0.00 0.00 89 1001.2
20260505121507 21 175 6.4 20.9 0.00 0.00 0.00 89 1000.9
20260505120004 21 192 6.4 17.7 0.00 0.00 0.00 89 1000.9
20260505114504 21 237 6.4 17.7 0.00 0.00 0.00 89 1000.9
20260505113006 21 164 8.0 22.5 0.00 0.00 0.00 89 1000.7
20260505111505 21 200 9.7 22.5 0.00 0.00 0.00 89 1000.7
20260505101551 21 151 8.0 20.9 0.00 0.00 0.00 88 1000.7
20260505100049 21 183 11.3 25.7 0.00 0.00 0.00 87 1000.8
20260505094549 21 238 6.4 22.5 0.00 0.00 0.00 87 1000.8
20260505093048 21 182 9.7 25.7 0.00 0.00 0.00 87 1000.9
20260505091548 22 188 9.7 25.7 0.00 0.00 0.00 87 1001.0
20260505090050 22 231 6.4 22.5 0.00 0.00 0.00 86 1001.1
20260505084541 22 198 8.0 19.3 0.00 0.00 0.00 86 1001.2
20260505083037 22 122 6.4 17.7 0.00 0.00 0.00 85 1001.3
20260505081542 22 183 8.0 24.1 0.00 0.00 0.00 84 1001.2
20260505080046 22 217 8.0 27.4 0.00 0.00 0.00 83 1001.2
20260505074529 22 143 8.0 16.1 0.00 0.00 0.00 83 1001.5
20260505073032 22 214 3.2 17.7 0.00 0.00 0.00 82 1001.9
20260505071524 22 162 8.0 19.3 0.00 0.00 0.00 81 1002.0
20260505070023 22 220 4.8 20.9 0.00 0.00 0.00 80 1002.3
20260505064518 23 173 4.8 12.9 0.00 0.00 0.00 79 1002.5
20260505063016 23 271 6.4 20.9 0.00 0.00 0.00 78 1002.6
20260505061517 23 191 4.8 16.1 0.00 0.00 0.00 77 1002.6
20260505060017 23 241 6.4 17.7 0.00 0.00 0.00 77 1002.7
20260505054512 23 236 4.8 16.1 0.00 0.00 0.00 77 1002.6
20260505053016 23 259 4.8 14.5 0.00 0.00 0.00 78 1002.7
20260505051508 23 214 4.8 16.1 0.00 0.00 0.00 77 1002.7
20260505041502 23 148 6.4 14.5 0.00 0.00 0.00 76 1002.9
20260505040000 23 177 4.8 17.7 0.00 0.00 0.00 75 1003.0
20260505034502 23 206 4.8 17.7 0.00 0.00 0.00 75 1003.0
20260505033100 23 200 4.8 14.5 0.00 0.00 0.00 75 1002.9
20260505031601 23 176 6.4 17.7 0.00 0.00 0.00 75 1003.0
20260505030100 23 172 3.2 11.3 0.00 0.00 0.00 75 1003.1
20260505024558 23 202 3.2 14.5 0.00 0.00 0.00 74 1003.3
20260505023057 23 149 1.6 11.3 0.00 0.00 0.00 74 1003.1
20260505021557 24 171 1.6 16.1 0.00 0.00 0.00 73 1003.0
20260505020055 24 184 4.8 11.3 0.00 0.00 0.00 73 1002.9
20260505014611 24 128 4.8 14.5 0.00 0.00 0.00 72 1003.0
20260505013055 24 197 4.8 16.1 0.00 0.00 0.00 72 1002.9
20260505011603 25 195 6.4 17.7 0.00 0.00 0.00 71 1003.0
20260505010055 25 195 8.0 19.3 0.00 0.00 0.00 70 1003.0
20260505004553 25 221 9.7 27.4 0.00 0.00 0.00 70 1002.9
20260505003051 25 238 8.0 24.1 0.00 0.00 0.00 69 1002.9
20260505001603 25 199 6.4 16.1 0.00 0.00 0.00 68 1003.0
20260505000105 26 148 8.0 22.5 0.00 0.00 0.00 67 1003.2
20260504234605 26 184 4.8 12.9 0.00 0.00 0.00 67 1003.2
20260504233050 26 219 4.8 16.1 0.00 0.00 0.00 67 1003.5
20260504231545 26 224 4.8 20.9 0.00 0.00 0.00 66 1003.4